Regional Weather Roundup
Issued by NWS Little Rock, AR

Home | Current Version | Previous Version | Graphics & Text | Print | Product List | Glossary On
Versions: 1 2 3 4 5 6 7 8 9 10 11 12 13 14 15 16 17 18 19 20 21 22 23 24 25 26 27 28 29 30 31 32 33 34 35 36 37 38 39 40 41 42 43 44 45 46 47 48
000
ASUS44 KLZK 210605
RWRLZK

WEATHER ROUNDUP FOR ARKANSAS
NATIONAL WEATHER SERVICE LITTLE ROCK AR
100 AM CDT SUN SEP 21 2014

NOTE: "FAIR" INDICATES FEW OR NO CLOUDS BELOW 12,000 FEET WITH NO
SIGNIFICANT WEATHER AND/OR OBSTRUCTIONS TO VISIBILITY.

ARZ001-003-010-029-210700-
NORTHWEST ARKANSAS

CITY           SKY/WX    TMP DP  RH WIND       PRES   REMARKS
FAYETTEVILLE   CLEAR     65  65 100 S5        30.05F
6HR MIN TEMP:  65; 6HR MAX TEMP:  78;

FORT SMITH     CLEAR     73  70  90 CALM      30.02S
6HR MIN TEMP:  72; 6HR MAX TEMP:  83;

HARRISON       CLEAR     71  66  84 S5        30.05S
6HR MIN TEMP:  68; 6HR MAX TEMP:  78;

BENTONVILLE    CLEAR     70  64  83 CALM      30.06S
6HR MIN TEMP:  68; 6HR MAX TEMP:  81;

ROGERS         PTCLDY    70  65  84 S6        30.06S
6HR MIN TEMP:  70; 6HR MAX TEMP:  79;

SILOAM SPGS    CLEAR     70  63  78 S3        30.06R
6HR MIN TEMP:  66; 6HR MAX TEMP:  79;

HIGHFILL       CLEAR     68  66  93 SW5       30.05R
6HR MIN TEMP:  67; 6HR MAX TEMP:  78;

$$

ARZ004-005-016-210700-
NORTH CENTRAL ARKANSAS

CITY           SKY/WX    TMP DP  RH WIND       PRES   REMARKS
BATESVILLE     CLEAR     70  64  83 CALM      30.01S
6HR MIN TEMP:  70; 6HR MAX TEMP:  84;

FLIPPIN        CLEAR     72  63  73 SW3       30.02S
6HR MIN TEMP:  72; 6HR MAX TEMP:  82;

MTN HOME       CLEAR     70  67  90 SW3       30.02S
6HR MIN TEMP:  69; 6HR MAX TEMP:  80;

$$

ARZ040-041-210700-
WEST CENTRAL ARKANSAS

CITY           SKY/WX    TMP DP  RH WIND       PRES   REMARKS
MENA             N/A     68  66  94 CALM      30.06S
MOUNT IDA      CLEAR     68  66  93 CALM      30.02S FOG
6HR MIN TEMP:  68; 6HR MAX TEMP:  78;

$$

ARZ009-017-025-026-028-210700-
NORTHEAST ARKANSAS

CITY           SKY/WX    TMP DP  RH WIND       PRES   REMARKS
CORNING          N/A     68  68 100 SW6       29.99S
JONESBORO      CLEAR     70  67  90 CALM      30.00R
6HR MIN TEMP:  69; 6HR MAX TEMP:  81;

NEWPORT        CLEAR     70  66  86 CALM      30.01S
6HR MIN TEMP:  70; 6HR MAX TEMP:  83;

WALNUT RIDGE   CLEAR     72  55  56 SW7       29.99S
6HR MIN TEMP:  70; 6HR MAX TEMP:  82;

BLYTHEVILLE    CLEAR     72  69  90 S6        30.00S
6HR MIN TEMP:  72; 6HR MAX TEMP:  81;

$$

ARZ022-023-033-042-044-210700-
CENTRAL ARKANSAS

CITY           SKY/WX    TMP DP  RH WIND       PRES   REMARKS
LITTLE ROCK    CLEAR     72  68  87 CALM      30.01F
6HR MIN TEMP:  72; 6HR MAX TEMP:  83;

N LITTLE ROCK    N/A     74  69  83 SW5       30.01F
6HR MIN TEMP:  73; 6HR MAX TEMP:  81;

JACKSONVILLE   CLEAR     69  68  96 CALM      30.01F FOG
6HR MIN TEMP:  69; 6HR MAX TEMP:  81;

SEARCY         CLEAR     67  67 100 CALM      30.02S FOG
6HR MIN TEMP:  67; 6HR MAX TEMP:  82;

HOT SPRINGS    CLEAR     70  67  90 CALM      30.03S
6HR MIN TEMP:  69; 6HR MAX TEMP:  84;

RUSSELLVILLE   CLEAR     69  67  93 CALM      30.02S
6HR MIN TEMP:  69; 6HR MAX TEMP:  79;

CLINTON        FAIR      66  66 100 CALM      30.04S FOG
$$

ARZ036-210700-
EAST ARKANSAS

CITY           SKY/WX    TMP DP  RH WIND       PRES   REMARKS
WEST MEMPHIS   CLEAR     71  70  96 CALM      30.00S
6HR MIN TEMP:  70; 6HR MAX TEMP:  79;

$$

ARZ050-053-066-070-073-210700-
SOUTHWEST ARKANSAS

CITY           SKY/WX    TMP DP  RH WIND       PRES   REMARKS
ARKADELPHIA    FAIR      70  70 100 CALM      30.02S FOG
6HR MIN TEMP:  70; 6HR MAX TEMP:  84;

CAMDEN         CLEAR     68  66  94 CALM      30.01S FOG
TEXARKANA      CLEAR     72  70  93 SE3       30.02S
6HR MIN TEMP:  71; 6HR MAX TEMP:  82;

EL DORADO      CLEAR     69  68  96 CALM      30.02S
6HR MIN TEMP:  69; 6HR MAX TEMP:  80;

DE QUEEN       FOG       68  68 100 CALM      30.01S VSB 1/2
6HR MIN TEMP:  68; 6HR MAX TEMP:  82;

$$

ARZ056-057-069-210700-
SOUTHEAST ARKANSAS

CITY           SKY/WX    TMP DP  RH WIND       PRES   REMARKS
PINE BLUFF     CLEAR     70  66  87 CALM      30.01F
6HR MIN TEMP:  69; 6HR MAX TEMP:  86;

STUTTGART      CLEAR     72  66  83 CALM      30.02S
6HR MIN TEMP:  72; 6HR MAX TEMP:  86;

MONTICELLO     CLEAR     72  67  84 CALM      30.00F
6HR MIN TEMP:  72; 6HR MAX TEMP:  84;


$$




USA.gov is the U.S. government's official web portal to all federal, state and local government web resources and services.